Spokane Fairchild, WA
on Thursday, January 17, 2013

Thursday
Previous Day Next Day
Daily Summary
 ActualAverage (KGEG)Record (KGEG)
Temperature
Mean Temperature °F 30°F  
Max Temperature 21°F 35°F 51°F (1919)
Min Temperature 14°F 25°F -18°F (1950)
Degree Days
Heating Degree Days 48 35  
Month to date heating degree days 619  
Since 1 July heating degree days 3453  
Cooling Degree Days 0 0  
Month to date cooling degree days 0  
Year to date cooling degree days 0  
Moisture
Dew Point 18°F   
Average Humidity 100    
Maximum Humidity 100    
Minimum Humidity 96    
Precipitation
Precipitation 0.00 in 0.05 in 0.54 in (1958)
Month to date precipitation 1.06  
Year to date precipitation 1.06  
Snow
Snow 0.00 in 0.30 in 3.40 in (1953)
Month to date snowfall 7.4  
Since 1 July snowfall 29.5  
Snow Depth 3.00 in   
Wind
Wind Speed 2 mph   
Max Wind Speed 6 mph   
Max Gust Speed mph   
Visibility 1 miles   
Events Fog , Snow   

Key: T is trace of precipitation, MM is missing value
Source: NWS Daily Summary
Time(PST)TemperatureDew PointHumidity Pressure Visibility Wind DirectionWind SpeedGust SpeedPrecipitationEvents Conditions
12:23 AM 14.0°F 14.0°F 100% 30.48 in 0.2 miles Calm Calm - N/A Fog Light Freezing Fog
12:47 AM 15.8°F 15.8°F 100% 30.48 in 0.2 miles Calm Calm - N/A Fog , Snow Light Freezing Fog
12:58 AM 16.5°F 16.5°F 100% 30.60 in 0.2 miles Calm Calm - 0.00 in Fog , Snow Light Freezing Fog
1:00 AM 17.6°F 17.6°F 100% 30.48 in 0.2 miles Calm Calm - N/A Fog Light Freezing Fog
1:14 AM 15.8°F 15.8°F 100% 30.48 in 0.2 miles Calm Calm - N/A Fog Light Freezing Fog
1:24 AM 14.0°F 14.0°F 100% 30.48 in 0.2 miles Calm Calm - N/A Fog Light Freezing Fog
1:34 AM 15.8°F 15.8°F 100% 30.48 in 0.2 miles WSW 2.3 mph - N/A Fog Light Freezing Fog
1:53 AM 15.8°F 15.8°F 100% 30.48 in 0.2 miles WSW 2.3 mph - N/A Fog , Snow Light Freezing Fog
1:58 AM 15.8°F 15.8°F 100% 30.60 in 0.2 miles SW 1.2 mph - 0.00 in Fog , Snow Light Freezing Fog
2:03 AM 15.8°F 15.8°F 100% 30.48 in 0.2 miles Calm Calm - N/A Fog Light Freezing Fog
2:04 AM 15.8°F 15.8°F 100% 30.48 in 0.2 miles Calm Calm - N/A Fog Light Freezing Fog
2:52 AM 14.0°F 14.0°F 100% 30.48 in 0.2 miles Calm Calm - N/A Fog Light Freezing Fog
2:58 AM 14.0°F 14.0°F 100% 30.60 in 0.2 miles Calm Calm - 0.00 in Fog Light Freezing Fog
3:04 AM 14.0°F 14.0°F 100% 30.48 in 0.2 miles WSW 1.2 mph - N/A Fog Light Freezing Fog
3:13 AM 14.0°F 14.0°F 100% 30.48 in 0.2 miles West 2.3 mph - N/A Fog , Snow Light Freezing Fog
3:26 AM 14.0°F 14.0°F 100% 30.48 in 0.2 miles Calm Calm - N/A Fog Light Freezing Fog
3:27 AM 14.0°F 14.0°F 100% 30.48 in 0.2 miles Calm Calm - N/A Fog Light Freezing Fog
3:56 AM 14.4°F 14.4°F 100% 30.60 in 0.2 miles North 2.3 mph - N/A Fog Light Freezing Fog
4:56 AM 15.8°F 15.8°F 100% 30.61 in 0.2 miles ENE 2.3 mph - N/A Fog Light Freezing Fog
4:57 AM 15.8°F 15.8°F 100% 30.47 in 0.2 miles ENE 2.3 mph - N/A Fog , Snow Light Freezing Fog
5:19 AM 17.6°F 17.6°F 100% 30.47 in 0.2 miles Calm Calm - N/A Fog , Snow Light Freezing Fog
5:43 AM 15.8°F 15.8°F 100% 30.47 in 0.2 miles ENE 1.2 mph - N/A Fog Light Freezing Fog
5:44 AM 15.8°F 15.8°F 100% 30.47 in 0.2 miles ENE 1.2 mph - N/A Fog Light Freezing Fog
5:47 AM 15.8°F 15.8°F 100% 30.47 in 0.2 miles ENE 2.3 mph - N/A Fog Light Freezing Fog
5:49 AM 15.8°F 15.8°F 100% 30.47 in 0.2 miles East 1.2 mph - N/A Fog , Snow Light Freezing Fog
5:58 AM 16.0°F 16.0°F 100% 30.59 in 0.2 miles ENE 2.3 mph - 0.00 in Fog , Snow Light Freezing Fog
6:11 AM 15.8°F 15.8°F 100% 30.46 in 0.2 miles ENE 2.3 mph - N/A Fog Light Freezing Fog
6:16 AM 15.8°F 15.8°F 100% 30.47 in 0.2 miles ENE 2.3 mph - N/A Fog Light Freezing Fog
6:55 AM 15.4°F 15.8°F 100% 30.60 in 0.5 miles Calm Calm - N/A Fog Light Freezing Fog
7:11 AM 15.8°F 15.8°F 100% 30.47 in 0.2 miles Calm Calm - N/A Fog Light Freezing Fog
7:55 AM 14.4°F 14.4°F 100% 30.61 in 0.2 miles NNE 3.5 mph - 0.00 in Fog , Snow Light Freezing Fog
8:27 AM 15.8°F 15.8°F 100% 30.50 in 0.2 miles NE 1.2 mph - N/A Fog Light Freezing Drizzle
8:46 AM 15.8°F 15.8°F 100% 30.50 in 0.2 miles NE 1.2 mph - N/A Fog , Snow Light Freezing Fog
8:58 AM 15.4°F 15.4°F 100% 30.62 in 0.2 miles East 2.3 mph - 0.00 in Fog , Snow Light Freezing Fog
9:38 AM 15.8°F 15.8°F 100% 30.48 in 0.2 miles East 1.2 mph - N/A Fog Light Freezing Fog
9:39 AM 15.8°F 15.8°F 100% 30.48 in 0.2 miles East 2.3 mph - N/A Fog Light Freezing Drizzle
9:58 AM 16.7°F 15.8°F 96% 30.63 in 0.2 miles NE 3.5 mph - 0.00 in Fog Light Freezing Drizzle
10:03 AM 15.8°F 15.8°F 100% 30.49 in 0.2 miles NNE 2.3 mph - N/A Fog Light Freezing Drizzle
10:09 AM 17.6°F 17.6°F 100% 30.49 in 0.5 miles NE 2.3 mph - N/A Fog Light Freezing Drizzle
10:13 AM 17.6°F 17.6°F 100% 30.49 in 0.2 miles NNE 2.3 mph - N/A Fog Light Freezing Fog
10:20 AM 17.6°F 17.6°F 100% 30.49 in 0.2 miles NNE 2.3 mph - N/A Fog Light Freezing Fog
10:39 AM 17.6°F 17.6°F 100% 30.49 in 0.2 miles Variable 2.3 mph - N/A Fog , Snow Light Freezing Fog
10:44 AM 17.6°F 17.6°F 100% 30.49 in 0.2 miles ENE 2.3 mph - N/A Fog , Snow Light Freezing Fog
10:49 AM 17.6°F 17.6°F 100% 30.48 in 0.2 miles ENE 1.2 mph - N/A Fog , Snow Light Freezing Fog
10:54 AM 17.6°F 17.6°F 100% 30.48 in 0.2 miles ENE 1.2 mph - N/A Fog , Snow Light Freezing Fog
10:58 AM 17.6°F 17.6°F 100% 30.62 in 0.2 miles ENE 2.3 mph - 0.00 in Fog , Snow Light Freezing Fog
11:20 AM 17.6°F 17.6°F 100% 30.46 in 0.2 miles East 2.3 mph - N/A Fog Light Freezing Fog
11:58 AM 19.6°F 19.6°F 100% 30.59 in 0.2 miles Calm Calm - 0.00 in Fog Light Freezing Fog
12:24 PM 21.2°F 21.2°F 100% 30.43 in 0.2 miles Calm Calm - N/A Fog Light Freezing Fog
12:44 PM 21.2°F 21.2°F 100% 30.42 in 0.2 miles East 2.3 mph - N/A Fog Light Freezing Fog
12:55 PM 21.2°F 21.2°F 100% 30.42 in 0.2 miles East 2.3 mph - N/A Fog Light Freezing Fog
12:58 PM 20.5°F 20.5°F 100% 30.55 in 0.2 miles East 2.3 mph - 0.00 in Fog Light Freezing Fog
1:03 PM 21.2°F 21.2°F 100% 30.42 in 0.8 miles NE 2.3 mph - N/A   Mist
1:04 PM 21.2°F 21.2°F 100% 30.42 in 0.8 miles NNE 2.3 mph - N/A   Mist
1:10 PM 21.2°F 21.2°F 100% 30.42 in 0.5 miles NE 3.5 mph - N/A Fog Light Freezing Fog
1:16 PM 21.2°F 21.2°F 100% 30.42 in 0.5 miles NE 3.5 mph - N/A Fog Light Freezing Fog
1:26 PM 21.2°F 21.2°F 100% 30.42 in 0.8 miles NE 4.6 mph - N/A   Mist
1:33 PM 21.2°F 21.2°F 100% 30.42 in 1.0 miles NNE 5.8 mph - N/A   Mist
1:38 PM 21.2°F 21.2°F 100% 30.41 in 0.5 miles NNE 4.6 mph - N/A Fog Light Freezing Fog
1:43 PM 21.2°F 21.2°F 100% 30.41 in 0.5 miles NE 3.5 mph - N/A Fog Light Freezing Fog
1:58 PM 21.2°F 21.2°F 100% 30.53 in 0.5 miles ENE 3.5 mph - 0.00 in Fog Light Freezing Fog
1:59 PM 21.2°F 21.2°F 100% 30.40 in 0.5 miles NE 2.3 mph - N/A Fog Light Freezing Fog
2:04 PM 21.2°F 21.2°F 100% 30.40 in 0.2 miles NE 2.3 mph - N/A Fog Light Freezing Fog
2:09 PM 21.2°F 21.2°F 100% 30.40 in 0.2 miles NE 2.3 mph - N/A Fog Light Freezing Fog
2:20 PM 21.2°F 21.2°F 100% 30.40 in 0.5 miles East 2.3 mph - N/A Fog Light Freezing Fog
2:26 PM 21.2°F 21.2°F 100% 30.39 in 0.5 miles East 3.5 mph - N/A Fog Light Freezing Fog
2:32 PM 21.2°F 21.2°F 100% 30.39 in 0.2 miles ENE 3.5 mph - N/A Fog Light Freezing Fog
2:34 PM 19.4°F 19.4°F 100% 30.40 in 0.2 miles East 3.5 mph - N/A Fog Light Freezing Fog
2:39 PM 19.4°F 19.4°F 100% 30.39 in 0.2 miles ENE 4.6 mph - N/A Fog Light Freezing Fog
2:54 PM 21.2°F 21.2°F 100% 30.39 in 0.2 miles East 3.5 mph - N/A Fog , Snow Light Freezing Fog
2:59 PM 20.5°F 20.5°F 100% 30.52 in 0.2 miles East 2.3 mph - 0.00 in Fog , Snow Light Freezing Fog
3:09 PM 21.2°F 21.2°F 100% 30.39 in 0.2 miles NNE 4.6 mph - N/A Fog Light Freezing Fog
3:16 PM 21.2°F 21.2°F 100% 30.39 in 0.5 miles NNE 4.6 mph - N/A Fog Light Freezing Fog
3:21 PM 21.2°F 21.2°F 100% 30.39 in 0.8 miles North 5.8 mph - N/A   Mist
3:27 PM 21.2°F 21.2°F 100% 30.40 in 1.0 miles North 4.6 mph - N/A   Mist
3:32 PM 21.2°F 21.2°F 100% 30.39 in 1.2 miles NNE 3.5 mph - N/A   Overcast
3:42 PM 21.2°F 21.2°F 100% 30.39 in 1.0 miles NNE 1.2 mph - N/A   Mist
3:47 PM 21.2°F 21.2°F 100% 30.39 in 0.8 miles NE 2.3 mph - N/A   Mist
3:53 PM 21.2°F 21.2°F 100% 30.39 in 1.0 miles ENE 2.3 mph - N/A   Mist
3:58 PM 20.7°F 20.7°F 100% 30.51 in 0.5 miles East 2.3 mph - 0.00 in Fog Light Freezing Fog
4:03 PM 21.2°F 21.2°F 100% 30.38 in 0.2 miles NE 1.2 mph - N/A Fog Light Freezing Fog
4:07 PM 21.2°F 21.2°F 100% 30.37 in 0.2 miles SE 2.3 mph - N/A Fog , Snow Light Freezing Fog
4:12 PM 21.2°F 21.2°F 100% 30.36 in 0.2 miles SSE 3.5 mph - N/A Fog , Snow Light Freezing Fog
4:17 PM 21.2°F 21.2°F 100% 30.37 in 0.5 miles ESE 2.3 mph - N/A Fog , Snow Light Freezing Fog
4:22 PM 21.2°F 21.2°F 100% 30.37 in 0.8 miles ESE 4.6 mph - N/A Snow Light Snow
4:27 PM 21.2°F 21.2°F 100% 30.37 in 1.2 miles ESE 2.3 mph - N/A Snow Light Snow
4:33 PM 21.2°F 21.2°F 100% 30.37 in 1.5 miles East 2.3 mph - N/A   Overcast
4:38 PM 21.2°F 21.2°F 100% 30.38 in 1.2 miles ENE 2.3 mph - N/A   Overcast
4:52 PM 21.2°F 21.2°F 100% 30.39 in 1.2 miles North 2.3 mph - N/A Snow Light Snow
4:58 PM 21.2°F 21.2°F 100% 30.51 in 1.0 miles North 1.2 mph - 0.00 in Snow Light Snow
5:01 PM 21.2°F 21.2°F 100% 30.38 in 0.8 miles North 1.2 mph - N/A   Mist
5:06 PM 21.2°F 21.2°F 100% 30.38 in 0.5 miles NNW 2.3 mph - N/A Fog Light Freezing Fog
5:12 PM 21.2°F 21.2°F 100% 30.38 in 0.8 miles Calm Calm - N/A Snow Light Snow
5:44 PM 21.2°F 21.2°F 100% 30.38 in 1.2 miles Calm Calm - N/A   Overcast
5:50 PM 19.4°F 19.4°F 100% 30.37 in 1.5 miles SE 1.2 mph - N/A   Overcast
5:59 PM 20.3°F 20.3°F 100% 30.51 in 1.5 miles Calm Calm - 0.00 in   Overcast
6:08 PM 19.4°F 19.4°F 100% 30.36 in 2.5 miles West 2.3 mph - N/A   Mostly Cloudy
6:12 PM 19.4°F 19.4°F 100% 30.36 in 3.0 miles West 2.3 mph - N/A   Mostly Cloudy
6:37 PM 17.6°F 17.6°F 100% 30.35 in 1.8 miles West 5.8 mph - N/A   Overcast
6:39 PM 17.6°F 17.6°F 100% 30.35 in 1.0 miles West 5.8 mph - N/A   Mist
6:42 PM 17.6°F 17.6°F 100% 30.35 in 1.0 miles West 5.8 mph - N/A   Mist
6:55 PM 17.2°F 17.2°F 100% 30.48 in 4.0 miles West 5.8 mph - 0.00 in   Overcast
7:58 PM 15.8°F 15.8°F 100% 30.47 in 10.0 miles SSW 2.3 mph - 0.00 in   Partly Cloudy
8:33 PM 15.8°F 15.8°F 100% 30.34 in 10.0 miles NNW 2.3 mph - N/A Snow Light Snow
8:36 PM 15.8°F 15.8°F 100% 30.34 in 10.0 miles North 3.5 mph - N/A Snow Light Snow
8:53 PM 15.8°F 15.8°F 100% 30.34 in 10.0 miles NNE 2.3 mph - N/A Snow Light Snow
9:08 PM 15.8°F 15.8°F 100% 30.34 in 10.0 miles NNE 2.3 mph - N/A   Light Freezing Drizzle
9:14 PM 15.8°F 15.8°F 100% 30.34 in 9.0 miles North 2.3 mph - N/A   Overcast
9:40 PM 15.8°F 15.8°F 100% 30.46 in 2.0 miles Calm Calm - N/A   Overcast
9:54 PM 17.6°F 17.6°F 100% 30.32 in 0.8 miles SE 2.3 mph - N/A Snow Light Snow
10:09 PM 17.6°F 17.6°F 100% 30.32 in 1.0 miles SE 2.3 mph - N/A Snow Light Snow
10:20 PM 17.6°F 17.6°F 100% 30.32 in 1.0 miles SE 3.5 mph - N/A Snow Light Snow
10:27 PM 17.6°F 17.6°F 100% 30.31 in 1.5 miles SE 2.3 mph - N/A Snow Light Snow
10:37 PM 17.6°F 17.6°F 100% 30.32 in 7.0 miles SSE 2.3 mph - N/A   Overcast
10:48 PM 17.6°F 17.6°F 100% 30.31 in 7.0 miles South 2.3 mph - N/A   Light Freezing Drizzle
10:55 PM 17.6°F 17.6°F 100% 30.45 in 8.0 miles South 3.5 mph - N/A   Mostly Cloudy
11:14 PM 17.6°F 17.6°F 100% 30.44 in 7.0 miles SSW 4.6 mph - N/A   Mostly Cloudy
11:55 PM 18.1°F 18.1°F 100% 30.43 in 10.0 miles South 3.5 mph - N/A   Overcast
Moon Phase
Jan. 17 Jan. 18 Jan. 26 Feb. 03 Feb. 10
Sunrise:07:32 AM (PST) Moon Rise:10:10 AM (PST)1/17
Sunset:04:29 PM (PST) Moon Set:No Moon Set/

Copyright © 2014 The Weather Underground, Inc.